DW8923 Weather Reports


time (UTC)temp
F
wind
direction
speed
knots
gust
knots
rain 1hr
in
rain 24hr
in
rain mn
in
humidity
%
barometer
mb
20220629031551 77 37 0.0 0.9 0.00 0.28 0.06 70 1014.0
20220629030038 78 37 0.0 0.0 0.00 0.28 0.06 67 1013.7
20220629024538 79 37 0.0 0.0 0.00 0.41 0.06 64 1013.5
20220629023037 81 37 0.0 0.0 0.00 0.41 0.06 60 1013.6
20220629021537 82 37 0.0 0.0 0.00 0.41 0.06 57 1013.5
20220629020052 84 37 0.0 0.9 0.00 0.41 0.06 51 1013.6
20220629014536 85 37 0.0 0.9 0.00 0.41 0.06 51 1013.6
20220629013035 85 37 0.0 1.7 0.00 0.41 0.06 46 1013.6
20220629011535 86 307 0.0 2.6 0.00 0.41 0.06 46 1013.7
20220629010034 86 53 0.9 3.5 0.00 0.41 0.06 47 1013.6
20220629004532 86 5 1.7 3.5 0.00 0.41 0.06 48 1013.3
20220629003033 87 351 0.9 1.7 0.00 0.41 0.06 50 1013.2
20220629001531 87 14 0.9 4.3 0.00 0.41 0.06 50 1013.2
20220629000030 87 342 1.7 5.2 0.00 0.41 0.06 50 1013.1
20220628234529 87 347 1.7 5.2 0.00 0.41 0.06 50 1013.2
20220628233028 87 346 2.6 6.1 0.00 0.41 0.06 51 1013.0
20220628231527 87 71 2.6 9.6 0.00 0.41 0.06 51 1013.1
20220628230026 87 347 3.5 7.8 0.00 0.41 0.06 51 1013.2
20220628224525 87 355 5.2 11.3 0.00 0.41 0.06 50 1013.3
20220628223023 87 341 4.3 9.6 0.00 0.41 0.06 51 1013.4
20220628221524 87 346 4.3 10.4 0.00 0.41 0.06 53 1013.4
20220628220026 86 89 3.5 8.7 0.00 0.41 0.06 58 1013.4
20220628214524 86 321 2.6 9.6 0.00 0.41 0.06 59 1013.6
20220628213016 86 355 3.5 8.7 0.00 0.41 0.06 60 1013.6
20220628211521 86 57 2.6 8.7 0.00 0.41 0.06 60 1013.7
20220628210012 87 337 3.5 9.6 0.00 0.41 0.06 59 1014.2
20220628204512 87 9 3.5 10.4 0.00 0.41 0.06 61 1014.6
20220628203009 86 96 2.6 9.6 0.00 0.41 0.06 62 1014.8
20220628201509 86 307 3.5 8.7 0.00 0.41 0.06 63 1014.8
20220628200008 86 14 2.6 10.4 0.00 0.41 0.06 64 1015.0
20220628194507 87 304 4.3 9.6 0.00 0.41 0.06 63 1015.3
20220628193006 87 9 3.5 9.6 0.00 0.41 0.06 63 1015.2
20220628191505 86 346 1.7 10.4 0.00 0.41 0.06 64 1015.3
20220628190003 86 16 2.6 7.8 0.00 0.41 0.06 65 1015.6
20220628184559 85 20 1.7 8.7 0.00 0.41 0.06 67 1016.0
20220628183108 84 35 2.6 7.8 0.00 0.41 0.06 68 1016.3
20220628181552 83 326 0.9 4.3 0.00 0.41 0.06 70 1016.5
20220628180051 83 344 0.9 3.5 0.00 0.41 0.06 71 1016.6
20220628174601 83 97 0.9 6.1 0.00 0.41 0.06 72 1016.6
20220628173048 82 70 1.7 5.2 0.00 0.41 0.06 74 1016.7
20220628171548 82 333 1.7 8.7 0.00 0.41 0.06 75 1016.9
20220628170045 80 115 1.7 5.2 0.00 0.41 0.06 78 1017.0
20220628164540 79 84 1.7 5.2 0.00 0.41 0.06 79 1017.0
20220628163047 79 331 0.9 4.3 0.00 0.41 0.06 80 1017.1
20220628161541 79 11 1.7 5.2 0.00 0.41 0.06 79 1016.9
20220628160035 79 341 0.9 4.3 0.00 0.41 0.06 80 1016.9
20220628154533 78 314 1.7 7.0 0.00 0.41 0.06 82 1016.8
20220628153027 77 299 0.9 3.5 0.00 0.41 0.06 85 1016.9
20220628151523 76 355 1.7 7.8 0.00 0.41 0.06 85 1017.0
20220628150019 76 9 3.5 7.8 0.00 0.41 0.06 85 1016.9
20220628144514 76 355 1.7 5.2 0.00 0.41 0.06 87 1016.8
20220628143010 75 22 0.9 4.3 0.00 0.41 0.06 88 1016.6
20220628141511 74 355 1.7 7.0 0.00 0.41 0.06 89 1016.5
20220628140001 74 355 2.6 7.0 0.00 0.41 0.06 90 1016.4
20220628134605 74 11 2.6 7.0 0.00 0.41 0.06 90 1016.3
20220628133055 73 9 1.7 6.1 0.00 0.41 0.06 92 1016.0
20220628131550 73 340 0.0 7.8 0.00 0.41 0.06 92 1015.8
20220628130046 73 25 2.6 5.2 0.00 0.41 0.06 93 1015.9
20220628124541 72 360 1.7 4.3 0.00 0.41 0.06 93 1015.5
20220628123037 72 349 0.0 3.5 0.00 0.41 0.06 93 1015.2
20220628121537 71 24 0.9 2.6 0.00 0.41 0.06 93 1015.0
20220628120042 71 36 0.0 2.6 0.00 0.41 0.06 94 1014.9
20220628114535 71 35 0.0 1.7 0.00 0.41 0.06 94 1014.7
20220628113034 71 28 0.0 1.7 0.00 0.41 0.06 94 1014.6
20220628111533 71 5 0.0 0.9 0.00 0.41 0.06 94 1014.6
20220628110033 71 46 0.0 2.6 0.00 0.41 0.06 94 1014.4
20220628104531 71 57 0.9 2.6 0.00 0.41 0.06 94 1014.4
20220628103036 71 340 0.9 3.5 0.00 0.41 0.06 94 1014.4
20220628101531 71 5 0.0 2.6 0.00 0.41 0.06 94 1014.4
20220628100033 71 21 0.9 2.6 0.00 0.41 0.06 93 1014.5
20220628094530 71 39 0.0 1.7 0.00 0.41 0.06 93 1014.3
20220628093029 71 289 0.0 1.7 0.00 0.41 0.06 93 1014.1
20220628091537 71 287 0.0 1.7 0.00 0.41 0.06 93 1014.2
20220628090026 71 296 0.0 1.7 0.00 0.41 0.06 93 1014.4
20220628084529 71 289 0.0 2.6 0.00 0.41 0.06 93 1014.7
20220628083028 71 274 0.0 1.7 0.00 0.41 0.06 93 1014.9
20220628081519 71 292 0.9 3.5 0.00 0.41 0.06 94 1015.1
20220628080019 71 269 0.9 3.5 0.00 0.41 0.06 94 1015.1
20220628074521 71 319 1.7 4.3 0.00 0.41 0.06 94 1015.3
20220628073019 71 274 2.6 8.7 0.01 0.41 0.06 94 1015.3
20220628071515 71 313 3.5 7.8 0.01 0.41 0.06 94 1015.7
20220628070015 71 306 4.3 8.7 0.01 0.41 0.06 94 1015.7
20220628064515 71 320 4.3 10.4 0.02 0.41 0.06 94 1015.6
20220628063018 71 245 2.6 7.0 0.02 0.40 0.05 94 1015.5
20220628061521 71 305 0.9 3.5 0.03 0.40 0.05 94 1015.8
20220628060010 71 224 0.9 7.0 0.05 0.40 0.05 94 1015.5
20220628054507 71 329 1.7 5.2 0.06 0.39 0.04 94 1015.7
20220628053006 71 270 1.7 4.3 0.06 0.38 0.03 94 1016.0
20220628051508 71 223 0.0 3.5 0.08 0.37 0.02 94 1016.3
20220628050100 72 267 0.9 3.5 0.10 0.36 0.01 94 1016.5
20220628044558 72 257 0.9 2.6 0.09 0.33 0.33 94 1016.6
20220628043058 72 251 0.0 1.7 0.12 0.32 0.32 94 1016.4
20220628041600 72 246 0.9 3.5 0.11 0.28 0.28 94 1016.1
20220628040057 72 273 0.9 2.6 0.12 0.26 0.26 94 1016.1
20220628034556 72 328 0.0 2.6 0.14 0.24 0.24 93 1016.5
20220628033054 72 300 1.7 7.0 0.15 0.20 0.20 93 1016.8